Orbital Elements at Epoch 2459000.5 (2020-May-31.0) TDB
Reference: JPL 17 (heliocentric ecliptic J2000)
Element | Value | Uncertainty (1-sigma) | Units |
e | .3861837900312989 | 6.8712e-08 | |
a | 2.562411844556166 | 1.8051e-08 | au |
q | 1.572849926804374 | 1.7022e-07 | au |
i | 8.104926785969631 | 7.3504e-06 | deg |
node | 30.52057112732792 | 3.8328e-05 | deg |
peri | 16.65345461227837 | 4.0815e-05 | deg |
M | 260.3970816067965 | 2.5138e-05 | deg |
tp | 2459415.016086615911 (2021-Jul-19.51608662) | 0.00010845 | TDB |
period | 1498.207016310785 4.10 | 1.5831e-05 4.334e-08 | d yr |
n | .2402872207116419 | 2.539e-09 | deg/d |
Q | 3.551973762307958 | 2.5022e-08 | au |
|
| | Orbit Determination Parameters
Additional Information
|